Time,TemperatureF,DewpointF,PressureIn,WindDirection,WindDirectionDegrees,WindSpeedMPH,WindSpeedGustMPH,Humidity,HourlyPrecipIn,Conditions,Clouds,dailyrainin,SoftwareType,DateUTC
2013-09-22 00:02:00,69.8,68.0,29.56,SSW,202,8.1,-999.9,94,-99.99,,,-99.99,,2013-09-22 04:02:00,
2013-09-22 00:08:00,69.8,68.0,29.56,SSW,202,8.1,-999.9,94,-99.99,,,-99.99,,2013-09-22 04:08:00,
2013-09-22 00:14:00,69.8,68.0,29.55,South,175,19.6,-999.9,94,-99.99,,,-99.99,,2013-09-22 04:14:00,
2013-09-22 00:20:00,69.8,68.0,29.55,South,175,19.6,-999.9,94,-99.99,,,-99.99,,2013-09-22 04:20:00,
2013-09-22 00:26:00,69.8,68.0,29.54,South,177,25.3,-999.9,94,-99.99,,,-99.99,,2013-09-22 04:26:00,
2013-09-22 00:32:00,69.8,69.8,29.54,South,180,16.1,-999.9,100,-99.99,,,-99.99,,2013-09-22 04:32:00,
2013-09-22 00:38:00,69.8,69.8,29.54,South,180,16.1,-999.9,100,-99.99,,,-99.99,,2013-09-22 04:38:00,
2013-09-22 00:44:00,69.8,68.0,29.54,South,182,17.3,-999.9,94,-99.99,,,-99.99,,2013-09-22 04:44:00,
2013-09-22 00:50:00,69.8,68.0,29.54,South,182,17.3,-999.9,94,-99.99,,,-99.99,,2013-09-22 04:50:00,
2013-09-22 00:56:00,68.0,66.2,29.55,SW,221,15.0,-999.9,94,-99.99,,,-99.99,,2013-09-22 04:56:00,
2013-09-22 01:22:00,68.0,68.0,29.57,West,272,9.2,-999.9,100,-99.99,,,-99.99,,2013-09-22 05:22:00,
2013-09-22 01:28:00,68.0,68.0,29.57,West,272,9.2,-999.9,100,-99.99,,,-99.99,,2013-09-22 05:28:00,
2013-09-22 01:34:00,64.4,62.6,29.56,NNW,328,8.1,-999.9,94,-99.99,,,-99.99,,2013-09-22 05:34:00,
2013-09-22 01:40:00,64.4,62.6,29.56,NNW,328,8.1,-999.9,94,-99.99,,,-99.99,,2013-09-22 05:40:00,
2013-09-22 01:52:00,64.4,64.4,29.56,NNW,335,3.5,-999.9,100,-99.99,,,-99.99,,2013-09-22 05:52:00,
2013-09-22 01:58:00,64.4,64.4,29.56,NNW,335,3.5,-999.9,100,-99.99,,,-99.99,,2013-09-22 05:58:00,
2013-09-22 02:04:00,64.4,64.4,29.56,North,355,2.3,-999.9,100,-99.99,,,-99.99,,2013-09-22 06:04:00,
2013-09-22 02:10:00,64.4,64.4,29.56,North,355,2.3,-999.9,100,-99.99,,,-99.99,,2013-09-22 06:10:00,
2013-09-22 02:16:00,64.4,64.4,29.56,NW,322,6.9,-999.9,100,-99.99,,,-99.99,,2013-09-22 06:16:00,
2013-09-22 02:22:00,64.4,62.6,29.58,West,265,9.2,-999.9,94,-99.99,,,-99.99,,2013-09-22 06:22:00,
2013-09-22 02:28:00,64.4,62.6,29.58,West,265,9.2,-999.9,94,-99.99,,,-99.99,,2013-09-22 06:28:00,
2013-09-22 02:34:00,64.4,64.4,29.57,North,354,0.0,-999.9,100,-99.99,,,-99.99,,2013-09-22 06:34:00,
2013-09-22 02:40:00,64.4,64.4,29.57,North,354,0.0,-999.9,100,-99.99,,,-99.99,,2013-09-22 06:40:00,
2013-09-22 02:46:00,64.4,64.4,29.57,North,0,0.0,-999.9,100,-99.99,,,-99.99,,2013-09-22 06:46:00,
2013-09-22 02:52:00,64.4,64.4,29.55,NNW,330,8.1,-999.9,100,-99.99,,,-99.99,,2013-09-22 06:52:00,
2013-09-22 02:58:00,64.4,64.4,29.55,NNW,330,8.1,-999.9,100,-99.99,,,-99.99,,2013-09-22 06:58:00,
2013-09-22 03:04:00,64.4,64.4,29.56,WNW,300,6.9,-999.9,100,-99.99,,,-99.99,,2013-09-22 07:04:00,
2013-09-22 03:10:00,64.4,64.4,29.56,WNW,300,6.9,-999.9,100,-99.99,,,-99.99,,2013-09-22 07:10:00,
2013-09-22 03:16:00,64.4,64.4,29.56,North,0,0.0,-999.9,100,-99.99,,,-99.99,,2013-09-22 07:16:00,
2013-09-22 03:22:00,64.4,64.4,29.57,WSW,248,2.3,-999.9,100,-99.99,,,-99.99,,2013-09-22 07:22:00,
2013-09-22 03:28:00,64.4,64.4,29.57,WSW,248,2.3,-999.9,100,-99.99,,,-99.99,,2013-09-22 07:28:00,
2013-09-22 03:34:00,64.4,64.4,29.57,West,263,5.8,-999.9,100,-99.99,,,-99.99,,2013-09-22 07:34:00,
2013-09-22 03:40:00,64.4,64.4,29.57,West,263,5.8,-999.9,100,-99.99,,,-99.99,,2013-09-22 07:40:00,
2013-09-22 03:46:00,64.4,64.4,29.55,North,0,0.0,-999.9,100,-99.99,,,-99.99,,2013-09-22 07:46:00,
2013-09-22 03:52:00,64.4,64.4,29.56,NW,321,0.0,-999.9,100,-99.99,,,-99.99,,2013-09-22 07:52:00,
2013-09-22 03:58:00,64.4,64.4,29.56,NW,321,0.0,-999.9,100,-99.99,,,-99.99,,2013-09-22 07:58:00,
2013-09-22 04:04:00,64.4,64.4,29.55,North,1,2.3,-999.9,100,-99.99,,,-99.99,,2013-09-22 08:04:00,
2013-09-22 04:10:00,64.4,64.4,29.55,North,1,2.3,-999.9,100,-99.99,,,-99.99,,2013-09-22 08:10:00,
2013-09-22 04:16:00,64.4,62.6,29.55,North,0,2.3,-999.9,94,-99.99,,,-99.99,,2013-09-22 08:16:00,
2013-09-22 04:22:00,64.4,62.6,29.56,WNW,295,6.9,-999.9,94,-99.99,,,-99.99,,2013-09-22 08:22:00,
2013-09-22 04:28:00,64.4,62.6,29.56,WNW,295,6.9,-999.9,94,-99.99,,,-99.99,,2013-09-22 08:28:00,
2013-09-22 04:34:00,64.4,62.6,29.57,WNW,295,1.2,-999.9,94,-99.99,,,-99.99,,2013-09-22 08:34:00,
2013-09-22 04:40:00,64.4,62.6,29.57,WNW,295,1.2,-999.9,94,-99.99,,,-99.99,,2013-09-22 08:40:00,
2013-09-22 04:46:00,64.4,62.6,29.58,West,280,5.8,-999.9,94,-99.99,,,-99.99,,2013-09-22 08:46:00,
2013-09-22 04:52:00,64.4,62.6,29.58,SW,226,1.2,-999.9,94,-99.99,,,-99.99,,2013-09-22 08:52:00,
2013-09-22 04:58:00,64.4,62.6,29.58,SW,226,1.2,-999.9,94,-99.99,,,-99.99,,2013-09-22 08:58:00,
2013-09-22 05:04:00,64.4,62.6,29.59,West,262,5.8,-999.9,94,-99.99,,,-99.99,,2013-09-22 09:04:00,
2013-09-22 05:10:00,64.4,62.6,29.59,West,262,5.8,-999.9,94,-99.99,,,-99.99,,2013-09-22 09:10:00,
2013-09-22 05:16:00,64.4,62.6,29.59,West,278,3.5,-999.9,94,-99.99,,,-99.99,,2013-09-22 09:16:00,
2013-09-22 05:22:00,64.4,62.6,29.59,West,270,4.6,-999.9,94,-99.99,,,-99.99,,2013-09-22 09:22:00,
2013-09-22 05:28:00,64.4,62.6,29.59,West,270,4.6,-999.9,94,-99.99,,,-99.99,,2013-09-22 09:28:00,
2013-09-22 05:34:00,64.4,62.6,29.59,WSW,249,5.8,-999.9,94,-99.99,,,-99.99,,2013-09-22 09:34:00,
2013-09-22 05:40:00,64.4,62.6,29.59,WSW,249,5.8,-999.9,94,-99.99,,,-99.99,,2013-09-22 09:40:00,
2013-09-22 05:46:00,64.4,62.6,29.58,NNW,332,11.5,-999.9,94,-99.99,,,-99.99,,2013-09-22 09:46:00,
2013-09-22 05:52:00,64.4,62.6,29.58,NW,317,9.2,-999.9,94,-99.99,,,-99.99,,2013-09-22 09:52:00,
2013-09-22 05:58:00,64.4,62.6,29.58,NW,317,9.2,-999.9,94,-99.99,,,-99.99,,2013-09-22 09:58:00,
2013-09-22 06:04:00,64.4,62.6,29.59,NW,320,6.9,-999.9,94,-99.99,,,-99.99,,2013-09-22 10:04:00,
2013-09-22 06:10:00,64.4,62.6,29.59,NW,320,6.9,-999.9,94,-99.99,,,-99.99,,2013-09-22 10:10:00,
2013-09-22 06:16:00,64.4,62.6,29.59,WNW,284,5.8,-999.9,94,-99.99,,,-99.99,,2013-09-22 10:16:00,
2013-09-22 06:22:00,64.4,60.8,29.60,WNW,285,5.8,-999.9,88,-99.99,,,-99.99,,2013-09-22 10:22:00,
2013-09-22 06:28:00,64.4,60.8,29.60,WNW,285,5.8,-999.9,88,-99.99,,,-99.99,,2013-09-22 10:28:00,
2013-09-22 06:34:00,64.4,60.8,29.60,West,271,6.9,-999.9,88,-99.99,,,-99.99,,2013-09-22 10:34:00,
2013-09-22 06:40:00,64.4,60.8,29.60,West,271,6.9,-999.9,88,-99.99,,,-99.99,,2013-09-22 10:40:00,
2013-09-22 06:46:00,64.4,60.8,29.60,WNW,289,5.8,-999.9,88,-99.99,,,-99.99,,2013-09-22 10:46:00,
2013-09-22 06:52:00,64.4,60.8,29.60,WNW,301,10.4,-999.9,88,-99.99,,,-99.99,,2013-09-22 10:52:00,
2013-09-22 06:58:00,64.4,60.8,29.60,WNW,301,10.4,-999.9,88,-99.99,,,-99.99,,2013-09-22 10:58:00,
2013-09-22 07:04:00,64.4,60.8,29.60,WNW,296,9.2,-999.9,88,-99.99,,,-99.99,,2013-09-22 11:04:00,
2013-09-22 07:10:00,64.4,60.8,29.60,WNW,296,9.2,-999.9,88,-99.99,,,-99.99,,2013-09-22 11:10:00,
2013-09-22 07:16:00,64.4,60.8,29.60,WNW,292,10.4,-999.9,88,-99.99,,,-99.99,,2013-09-22 11:16:00,
2013-09-22 07:22:00,64.4,60.8,29.61,NW,309,9.2,-999.9,88,-99.99,,,-99.99,,2013-09-22 11:22:00,
2013-09-22 07:28:00,64.4,60.8,29.61,NW,309,9.2,-999.9,88,-99.99,,,-99.99,,2013-09-22 11:28:00,
2013-09-22 07:34:00,64.4,59.0,29.61,WNW,298,10.4,-999.9,83,-99.99,,,-99.99,,2013-09-22 11:34:00,
2013-09-22 07:40:00,64.4,59.0,29.61,WNW,298,10.4,-999.9,83,-99.99,,,-99.99,,2013-09-22 11:40:00,
2013-09-22 07:46:00,64.4,59.0,29.62,NW,308,16.1,-999.9,83,-99.99,,,-99.99,,2013-09-22 11:46:00,
2013-09-22 07:52:00,64.4,59.0,29.62,WNW,299,20.7,-999.9,83,-99.99,,,-99.99,,2013-09-22 11:52:00,
2013-09-22 07:58:00,64.4,59.0,29.62,WNW,299,20.7,-999.9,83,-99.99,,,-99.99,,2013-09-22 11:58:00,
2013-09-22 08:04:00,64.4,59.0,29.62,NW,307,16.1,-999.9,83,-99.99,,,-99.99,,2013-09-22 12:04:00,
2013-09-22 08:10:00,64.4,59.0,29.62,NW,307,16.1,-999.9,83,-99.99,,,-99.99,,2013-09-22 12:10:00,
2013-09-22 08:16:00,64.4,57.2,29.62,NW,315,19.6,-999.9,77,-99.99,,,-99.99,,2013-09-22 12:16:00,
2013-09-22 08:22:00,64.4,55.4,29.62,WNW,289,20.7,-999.9,73,-99.99,,,-99.99,,2013-09-22 12:22:00,
2013-09-22 08:28:00,64.4,55.4,29.62,WNW,289,20.7,-999.9,73,-99.99,,,-99.99,,2013-09-22 12:28:00,
2013-09-22 08:34:00,62.6,55.4,29.62,NW,305,17.3,-999.9,77,-99.99,,,-99.99,,2013-09-22 12:34:00,
2013-09-22 08:40:00,62.6,55.4,29.62,NW,305,17.3,-999.9,77,-99.99,,,-99.99,,2013-09-22 12:40:00,
2013-09-22 08:46:00,62.6,53.6,29.62,NW,307,19.6,-999.9,72,-99.99,,,-99.99,,2013-09-22 12:46:00,
2013-09-22 08:52:00,62.6,53.6,29.63,NW,321,11.5,-999.9,72,-99.99,,,-99.99,,2013-09-22 12:52:00,
2013-09-22 08:58:00,62.6,53.6,29.63,NW,321,11.5,-999.9,72,-99.99,,,-99.99,,2013-09-22 12:58:00,
2013-09-22 09:04:00,64.4,53.6,29.63,NW,315,9.2,-999.9,68,-99.99,,,-99.99,,2013-09-22 13:04:00,
2013-09-22 09:10:00,64.4,53.6,29.63,NW,315,9.2,-999.9,68,-99.99,,,-99.99,,2013-09-22 13:10:00,
2013-09-22 09:16:00,64.4,51.8,29.63,NNW,336,17.3,-999.9,64,-99.99,,,-99.99,,2013-09-22 13:16:00,
2013-09-22 09:22:00,64.4,51.8,29.63,NW,318,9.2,-999.9,64,-99.99,,,-99.99,,2013-09-22 13:22:00,
2013-09-22 09:28:00,64.4,51.8,29.63,NW,318,9.2,-999.9,64,-99.99,,,-99.99,,2013-09-22 13:28:00,
2013-09-22 09:34:00,64.4,50.0,29.63,NNW,343,20.7,-999.9,59,-99.99,,,-99.99,,2013-09-22 13:34:00,
2013-09-22 09:40:00,64.4,50.0,29.63,NNW,343,20.7,-999.9,59,-99.99,,,-99.99,,2013-09-22 13:40:00,
2013-09-22 09:46:00,64.4,50.0,29.63,WNW,302,15.0,-999.9,59,-99.99,,,-99.99,,2013-09-22 13:46:00,
2013-09-22 09:52:00,64.4,48.2,29.63,NNW,336,21.9,-999.9,56,-99.99,,,-99.99,,2013-09-22 13:52:00,
2013-09-22 09:58:00,64.4,48.2,29.63,NNW,336,21.9,-999.9,56,-99.99,,,-99.99,,2013-09-22 13:58:00,
2013-09-22 10:04:00,64.4,48.2,29.64,NNW,331,17.3,-999.9,56,-99.99,,,-99.99,,2013-09-22 14:04:00,
2013-09-22 10:10:00,64.4,48.2,29.64,NNW,331,17.3,-999.9,56,-99.99,,,-99.99,,2013-09-22 14:10:00,
2013-09-22 10:16:00,64.4,48.2,29.64,NW,326,18.4,-999.9,56,-99.99,,,-99.99,,2013-09-22 14:16:00,
2013-09-22 10:22:00,66.2,48.2,29.64,NW,317,18.4,-999.9,52,-99.99,,,-99.99,,2013-09-22 14:22:00,
2013-09-22 10:28:00,66.2,48.2,29.64,NW,317,18.4,-999.9,52,-99.99,,,-99.99,,2013-09-22 14:28:00,
2013-09-22 10:34:00,66.2,46.4,29.64,NNW,333,31.1,-999.9,49,-99.99,,,-99.99,,2013-09-22 14:34:00,
2013-09-22 10:40:00,66.2,46.4,29.64,NNW,333,31.1,-999.9,49,-99.99,,,-99.99,,2013-09-22 14:40:00,
2013-09-22 10:46:00,66.2,46.4,29.64,NNW,335,23.0,-999.9,49,-99.99,,,-99.99,,2013-09-22 14:46:00,
2013-09-22 10:52:00,66.2,46.4,29.64,NNW,345,23.0,-999.9,49,-99.99,,,-99.99,,2013-09-22 14:52:00,
2013-09-22 10:58:00,66.2,46.4,29.64,NNW,345,23.0,-999.9,49,-99.99,,,-99.99,,2013-09-22 14:58:00,
2013-09-22 11:04:00,66.2,46.4,29.64,NNW,334,21.9,-999.9,49,-99.99,,,-99.99,,2013-09-22 15:04:00,
2013-09-22 11:10:00,66.2,46.4,29.64,NNW,334,21.9,-999.9,49,-99.99,,,-99.99,,2013-09-22 15:10:00,
2013-09-22 11:16:00,68.0,48.2,29.63,NNW,331,24.2,-999.9,49,-99.99,,,-99.99,,2013-09-22 15:16:00,
2013-09-22 11:22:00,66.2,46.4,29.63,NNW,329,18.4,-999.9,49,-99.99,,,-99.99,,2013-09-22 15:22:00,
2013-09-22 11:28:00,66.2,46.4,29.63,NNW,329,18.4,-999.9,49,-99.99,,,-99.99,,2013-09-22 15:28:00,
2013-09-22 11:34:00,66.2,44.6,29.64,NW,316,24.2,-999.9,46,-99.99,,,-99.99,,2013-09-22 15:34:00,
2013-09-22 11:40:00,66.2,44.6,29.64,NW,316,24.2,-999.9,46,-99.99,,,-99.99,,2013-09-22 15:40:00,
2013-09-22 11:46:00,66.2,44.6,29.64,NNW,327,21.9,-999.9,46,-99.99,,,-99.99,,2013-09-22 15:46:00,
2013-09-22 11:52:00,68.0,46.4,29.64,NNW,327,20.7,-999.9,46,-99.99,,,-99.99,,2013-09-22 15:52:00,
2013-09-22 11:58:00,68.0,46.4,29.64,NNW,327,20.7,-999.9,46,-99.99,,,-99.99,,2013-09-22 15:58:00,
2013-09-22 12:04:00,68.0,48.2,29.64,NNW,329,16.1,-999.9,49,-99.99,,,-99.99,,2013-09-22 16:04:00,
2013-09-22 12:10:00,68.0,48.2,29.64,NNW,329,16.1,-999.9,49,-99.99,,,-99.99,,2013-09-22 16:10:00,
2013-09-22 12:16:00,68.0,46.4,29.64,WNW,296,17.3,-999.9,46,-99.99,,,-99.99,,2013-09-22 16:16:00,
2013-09-22 12:22:00,68.0,46.4,29.64,NW,311,23.0,-999.9,46,-99.99,,,-99.99,,2013-09-22 16:22:00,
2013-09-22 12:28:00,68.0,46.4,29.64,NW,311,23.0,-999.9,46,-99.99,,,-99.99,,2013-09-22 16:28:00,
2013-09-22 12:34:00,66.2,44.6,29.64,NNW,347,23.0,-999.9,46,-99.99,,,-99.99,,2013-09-22 16:34:00,
2013-09-22 12:40:00,66.2,44.6,29.64,NNW,347,23.0,-999.9,46,-99.99,,,-99.99,,2013-09-22 16:40:00,
2013-09-22 12:46:00,66.2,44.6,29.64,NW,320,27.6,-999.9,46,-99.99,,,-99.99,,2013-09-22 16:46:00,
2013-09-22 12:52:00,68.0,44.6,29.64,NW,312,26.5,-999.9,43,-99.99,,,-99.99,,2013-09-22 16:52:00,
2013-09-22 12:58:00,68.0,44.6,29.64,NW,312,26.5,-999.9,43,-99.99,,,-99.99,,2013-09-22 16:58:00,
2013-09-22 13:04:00,68.0,46.4,29.64,NW,322,26.5,-999.9,46,-99.99,,,-99.99,,2013-09-22 17:04:00,
2013-09-22 13:10:00,68.0,46.4,29.64,NW,322,26.5,-999.9,46,-99.99,,,-99.99,,2013-09-22 17:10:00,